Wind_Speed
7 7 7 7 6 6 6 6 6 7 8 8 8 9 9 10 10 10 11 11 11 11 11 10 10 10 9 9 8 7 7 6 7 7 7 7 8 8 9 10 10 11 11
6 7 7 6 6 6 6 5 5 6 7 7 7 7 8 9 9 10 10 10 10 10 10 9 9 9 8 8 7 7 6 5 5 5 5 6 6 7 8 9 9 10 10
6 7 6 6 5 6 5 5 5 5 6 6 7 7 8 8 9 9 9 9 9 9 9 9 9 8 8 7 7 6 6 5 4 4 4 4 5 6 7 7 8 8 9
6 6 6 6 5 6 6 6 6 6 6 7 7 8 8 9 9 9 9 9 9 9 9 9 9 8 8 7 7 6 5 5 4 3 3 3 4 4 5 5 6 7 8
6 6 5 5 5 6 6 6 6 7 7 7 8 8 9 9 10 10 10 9 10 10 10 9 9 9 9 8 7 6 6 5 4 3 2 1 2 3 4 4 5 6 7
6 6 6 6 6 7 7 7 8 8 8 9 9 10 10 11 12 11 11 11 11 11 11 10 10 10 10 9 8 8 7 6 6 4 3 1 1 2 3 4 5 6 6
6 7 7 7 8 8 8 8 8 9 9 10 11 11 12 12 13 13 12 12 12 12 12 12 12 12 12 11 11 10 9 8 7 6 5 4 3 3 4 4 5 5 6
8 8 8 8 9 10 9 9 9 10 10 11 12 12 13 13 13 13 14 14 13 13 13 13 14 14 14 14 13 12 11 10 9 9 8 7 6 5 5 5 6 6 6
10 10 10 10 10 11 11 11 11 12 12 13 13 13 13 14 14 14 15 15 15 15 15 15 15 15 15 15 15 15 14 13 12 11 11 10 9 8 7 7 7 7 7
11 11 11 12 12 11 11 12 12 13 14 15 15 15 15 15 16 16 17 17 17 16 16 16 16 16 17 17 17 17 16 15 14 14 13 13 12 11 10 9 9 9 8
13 13 13 13 13 12 13 13 14 15 16 16 17 17 17 18 18 18 18 19 19 19 18 18 18 18 18 19 19 19 19 18 17 16 16 16 15 14 13 12 12 11 10
15 16 14 13 14 15 16 16 17 18 18 19 19 20 20 21 21 21 21 21 21 21 21 21 21 20 20 21 22 21 21 21 19 18 18 18 18 17 16 15 14 14 13
17 16 15 16 16 17 19 19 20 20 21 22 22 23 23 23 24 24 24 24 24 24 23 23 22 23 22 23 24 24 23 23 22 21 21 21 21 20 19 18 17 17 15
19 18 19 19 19 20 22 22 23 23 23 24 25 25 26 27 26 27 27 27 27 27 26 25 25 25 25 25 26 26 26 25 25 24 24 24 24 23 22 21 20 19 18
20 21 23 22 23 24 24 26 25 26 26 27 28 28 28 28 29 29 29 29 30 29 28 26 26 26 27 26 26 27 28 27 26 27 26 26 25 24 24 23 22 21 20
23 25 24 23 25 26 27 28 28 28 28 29 29 30 30 31 31 31 31 30 30 30 29 28 27 27 27 28 28 28 29 29 29 29 28 27 26 25 25 25 25 24 23
26 25 26 27 27 27 29 29 29 30 31 31 31 31 32 32 33 33 33 32 31 30 30 30 29 29 30 29 29 30 30 29 29 29 29 29 28 27 26 26 26 25 24
25 26 27 27 28 29 30 31 31 32 33 33 33 34 34 34 35 34 33 31 31 31 31 31 31 30 30 30 30 30 30 31 30 30 30 30 30 28 27 27 27 26 26
25 26 27 28 28 30 31 31 32 33 34 34 35 35 35 35 35 34 33 32 32 32 32 32 32 31 31 30 30 30 30 30 31 31 30 31 30 29 28 27 26 26 26
24 26 27 28 29 30 31 32 33 34 35 36 36 37 37 37 37 36 35 35 35 34 33 33 32 32 32 31 31 31 31 30 30 31 31 31 31 30 28 27 26 26 26
23 25 26 28 29 31 32 33 34 35 37 37 37 38 38 38 38 38 37 37 37 36 35 34 33 33 32 33 33 32 30 29 29 30 31 31 31 29 28 28 27 27 26
23 25 26 28 29 31 33 34 35 36 37 38 39 39 39 39 39 39 39 38 38 37 36 36 34 34 34 33 33 32 32 29 28 29 31 32 31 30 30 29 28 28 27
21 23 25 28 30 32 34 35 36 37 38 39 40 40 41 41 40 39 39 39 38 37 37 37 36 35 33 33 33 32 31 30 28 28 30 31 32 32 30 30 30 29 28
20 22 24 27 29 32 34 36 37 38 39 40 40 41 41 41 40 40 40 39 38 37 37 37 37 36 35 34 34 34 33 32 31 29 30 31 32 32 31 31 31 30 29
20 22 24 27 29 31 33 35 36 37 38 39 40 41 41 41 40 40 40 39 38 38 37 37 37 36 35 35 35 34 34 33 32 31 31 32 32 32 32 32 32 32 31
22 24 27 28 30 32 34 35 36 37 38 39 39 40 40 39 39 39 39 39 38 38 38 38 38 37 36 36 36 36 35 36 34 33 33 34 34 34 33 33 34 34 33
Wind_Direction
352 354 356 357 359 358 359 5 11 13 13 14 15 16 15 14 12 11 11 11 10 10 11 12 13 16 21 24 28 34 42 53 61 70 80 89 95 98 102 106 108 109 109
351 352 349 348 351 348 346 351 360 3 3 4 6 6 5 3 2 2 1 0 0 360 360 0 1 3 8 13 19 24 32 43 57 70 79 89 95 98 102 104 106 109 110
352 349 344 342 344 341 338 341 347 351 354 356 355 354 351 350 348 347 348 348 348 348 347 346 346 347 352 358 5 11 18 27 39 57 73 84 94 99 103 108 109 111 112
348 344 340 339 339 337 333 332 336 341 342 343 342 339 336 335 334 333 332 332 332 331 332 332 332 331 334 340 345 350 357 4 17 31 55 83 97 106 112 115 118 117 118
339 336 333 328 325 322 323 325 328 329 329 328 326 323 321 321 319 319 319 318 318 317 315 316 316 317 318 320 323 325 331 334 340 353 9 60 115 130 133 134 134 133 130
325 322 317 312 308 308 309 312 314 315 317 318 316 314 313 314 312 309 309 309 308 305 303 303 302 303 304 304 305 305 307 309 307 309 312 300 229 183 173 166 158 153 147
303 305 304 301 301 303 302 302 304 306 308 310 311 309 309 309 307 304 303 303 302 299 295 293 292 291 291 292 291 290 289 288 287 286 281 274 260 236 215 200 187 176 167
294 297 296 295 295 298 298 298 301 302 304 306 307 306 304 304 304 301 300 300 299 295 289 285 284 283 282 282 282 280 278 275 273 272 268 262 255 248 238 224 211 199 187
292 294 292 293 296 298 300 300 302 302 302 302 302 302 301 300 298 297 296 295 294 292 288 282 278 277 277 276 275 274 272 269 266 264 263 260 254 249 244 236 226 215 205
285 289 293 295 295 298 302 304 304 304 303 303 302 301 300 300 298 298 297 293 291 290 287 282 276 273 272 271 271 269 268 265 261 259 258 257 253 249 245 241 234 226 218
281 286 289 295 294 296 299 302 304 305 306 305 303 302 301 300 298 297 296 295 292 288 284 279 277 272 269 268 267 266 264 261 257 255 254 254 253 249 245 242 239 234 226
282 285 283 290 292 297 299 300 301 303 302 304 304 303 301 299 298 296 295 294 293 291 286 280 275 271 269 266 265 264 263 259 255 252 251 251 251 249 245 242 240 237 234
279 281 283 286 289 294 296 297 297 298 299 299 300 300 298 298 297 296 293 291 290 288 287 282 277 272 270 268 265 262 261 259 255 251 250 248 247 247 245 243 240 237 236
279 286 285 286 288 289 289 292 291 292 294 296 297 298 297 294 293 294 291 288 286 283 283 281 278 276 273 270 264 261 260 262 256 251 249 248 246 245 243 241 238 236 235
285 286 285 287 289 289 290 290 290 287 289 291 292 293 293 293 293 293 289 284 281 278 278 277 275 276 275 272 264 261 261 261 257 251 250 247 244 243 242 241 239 236 234
286 287 289 291 291 291 292 292 293 293 292 291 290 292 291 290 290 291 289 287 283 276 274 274 274 276 274 272 267 262 259 258 256 252 249 244 241 241 241 240 238 236 234
288 290 292 295 295 296 295 296 296 296 295 293 292 293 292 291 290 292 292 289 285 279 274 273 273 274 273 271 268 265 260 256 255 251 248 243 240 240 240 238 238 235 231
289 290 293 294 294 294 295 295 295 295 294 293 293 292 292 291 290 290 290 287 285 280 276 274 272 272 273 270 267 265 261 256 254 253 245 240 240 241 239 237 236 233 231
288 290 292 293 293 293 293 294 293 293 293 293 293 292 293 292 291 291 289 287 287 283 280 276 272 271 270 268 265 263 262 257 252 250 243 238 238 238 238 236 235 232 231
291 292 293 294 294 294 295 295 294 294 294 295 293 292 292 292 291 289 288 286 286 283 281 276 271 270 268 266 264 264 263 257 252 249 241 237 237 236 235 234 232 231 229
294 295 296 296 297 297 297 296 295 294 293 293 292 291 290 290 289 288 287 285 284 282 279 275 272 271 270 266 263 262 260 256 253 246 240 236 236 235 232 230 229 229 227
295 297 298 298 299 299 298 297 296 294 293 292 291 290 289 288 287 287 285 283 282 280 277 275 272 269 268 265 263 259 255 255 252 245 238 233 233 232 230 228 227 226 225
299 300 300 301 300 299 298 297 296 295 293 292 291 291 290 288 287 285 283 282 280 279 276 273 271 269 266 263 260 257 253 250 250 244 238 232 231 230 229 227 225 224 224
302 302 302 302 301 301 300 298 297 296 295 294 292 291 290 289 287 285 282 280 279 276 274 272 270 268 265 262 259 255 252 249 247 241 236 232 230 229 228 226 224 223 221
306 305 305 304 303 302 301 300 299 297 296 295 293 292 290 289 287 284 282 279 277 274 272 270 269 266 264 260 257 254 251 247 244 240 236 233 230 228 227 226 224 221 220
312 311 310 309 309 308 306 304 302 300 298 296 295 293 291 289 287 285 282 280 277 274 271 268 266 264 261 259 257 253 249 245 242 238 236 233 230 227 226 225 223 221 220
Height
5923 5922 5921 5921 5921 5921 5920 5919 5919 5918 5917 5917 5916 5915 5915 5914 5912 5911 5910 5909 5908 5907 5906 5905 5904 5903 5902 5901 5900 5900 5899 5899 5898 5898 5898 5898 5898 5897 5897 5897 5897 5897 5897
5923 5922 5921 5921 5921 5921 5920 5919 5919 5918 5917 5917 5916 5915 5915 5914 5913 5912 5910 5909 5908 5907 5906 5905 5904 5903 5902 5902 5901 5900 5900 5900 5899 5899 5899 5898 5898 5898 5898 5898 5898 5898 5898
5922 5922 5921 5921 5921 5920 5920 5919 5919 5918 5917 5916 5916 5915 5914 5913 5912 5911 5910 5909 5908 5907 5906 5905 5904 5903 5903 5902 5901 5901 5900 5900 5899 5899 5899 5899 5898 5898 5898 5898 5898 5899 5899
5922 5921 5921 5921 5921 5920 5920 5919 5918 5918 5917 5916 5915 5914 5914 5913 5912 5911 5910 5909 5908 5907 5906 5905 5904 5903 5902 5902 5901 5901 5900 5900 5899 5899 5899 5899 5899 5898 5898 5899 5899 5899 5899
5921 5921 5921 5920 5920 5920 5919 5918 5918 5917 5916 5915 5914 5913 5913 5912 5911 5910 5909 5908 5907 5906 5904 5904 5903 5902 5901 5901 5900 5900 5899 5899 5899 5899 5899 5899 5899 5899 5899 5899 5899 5900 5900
5920 5920 5920 5919 5919 5918 5918 5917 5917 5916 5915 5914 5913 5912 5911 5910 5909 5908 5907 5906 5905 5904 5903 5902 5901 5900 5900 5900 5899 5899 5899 5898 5898 5898 5899 5899 5899 5899 5899 5899 5899 5900 5900
5919 5919 5918 5918 5917 5917 5916 5915 5915 5914 5913 5912 5911 5910 5909 5908 5907 5906 5905 5904 5903 5902 5901 5900 5899 5898 5898 5898 5898 5898 5898 5897 5897 5897 5898 5898 5898 5898 5899 5899 5899 5900 5900
5917 5917 5917 5916 5915 5915 5914 5913 5912 5912 5911 5910 5909 5908 5906 5905 5904 5903 5902 5901 5900 5899 5898 5897 5896 5896 5895 5895 5895 5895 5896 5896 5896 5896 5896 5896 5897 5897 5898 5898 5898 5899 5899
5915 5915 5914 5914 5913 5912 5912 5911 5910 5909 5908 5907 5905 5904 5903 5902 5901 5900 5898 5897 5896 5895 5894 5893 5893 5892 5892 5892 5892 5892 5892 5893 5893 5893 5894 5894 5895 5896 5896 5897 5897 5898 5899
5913 5912 5912 5911 5910 5909 5909 5908 5907 5906 5905 5903 5902 5901 5900 5898 5897 5896 5895 5893 5892 5891 5890 5890 5889 5888 5888 5888 5888 5888 5888 5889 5890 5891 5891 5891 5892 5893 5894 5895 5896 5896 5897
5910 5909 5909 5908 5907 5906 5905 5904 5903 5902 5901 5900 5898 5897 5895 5894 5893 5891 5890 5889 5888 5887 5886 5885 5885 5884 5884 5883 5883 5883 5884 5885 5886 5887 5888 5888 5889 5890 5891 5892 5893 5894 5895
5907 5906 5905 5904 5903 5902 5901 5900 5899 5898 5897 5895 5894 5892 5891 5889 5888 5887 5885 5884 5882 5881 5881 5880 5879 5879 5879 5878 5878 5878 5879 5879 5881 5882 5883 5884 5885 5886 5888 5889 5890 5892 5893
5902 5901 5900 5899 5898 5897 5896 5895 5894 5893 5892 5890 5889 5887 5886 5884 5883 5881 5880 5878 5877 5875 5875 5874 5874 5873 5873 5872 5872 5872 5873 5874 5875 5877 5878 5880 5881 5882 5883 5885 5886 5888 5890
5896 5897 5896 5894 5894 5893 5891 5890 5888 5887 5886 5885 5883 5881 5880 5878 5877 5875 5874 5872 5870 5869 5868 5867 5867 5866 5866 5865 5865 5866 5866 5868 5869 5870 5872 5874 5876 5877 5879 5881 5882 5884 5886
5890 5891 5891 5890 5888 5887 5885 5884 5882 5881 5880 5879 5877 5875 5873 5871 5870 5868 5866 5865 5863 5862 5862 5861 5860 5859 5859 5858 5858 5859 5860 5860 5862 5864 5866 5868 5870 5872 5874 5876 5877 5879 5881
5884 5884 5884 5884 5883 5881 5879 5878 5876 5875 5873 5871 5869 5868 5866 5864 5862 5860 5858 5857 5855 5855 5854 5853 5853 5852 5851 5851 5851 5851 5852 5853 5854 5856 5859 5861 5864 5866 5867 5870 5872 5874 5876
5880 5879 5878 5877 5876 5874 5873 5871 5869 5867 5865 5863 5862 5860 5858 5856 5854 5852 5850 5849 5847 5846 5846 5845 5845 5844 5844 5843 5844 5844 5845 5846 5847 5849 5851 5854 5857 5859 5861 5863 5866 5869 5871
5876 5875 5874 5872 5871 5869 5867 5865 5862 5860 5858 5856 5853 5852 5850 5848 5846 5844 5843 5841 5839 5837 5836 5836 5836 5836 5836 5836 5836 5837 5838 5839 5840 5841 5844 5847 5850 5853 5855 5858 5860 5862 5865
5871 5870 5868 5867 5865 5863 5860 5858 5855 5853 5850 5847 5845 5844 5842 5840 5838 5836 5834 5833 5831 5830 5828 5827 5827 5828 5828 5828 5828 5829 5830 5831 5832 5834 5837 5840 5843 5846 5849 5851 5854 5856 5859
5866 5864 5862 5860 5858 5856 5854 5851 5848 5845 5843 5840 5838 5836 5834 5832 5829 5828 5826 5824 5822 5821 5820 5819 5819 5819 5819 5819 5820 5821 5822 5823 5824 5827 5830 5833 5836 5839 5842 5845 5848 5851 5854
5861 5859 5856 5854 5852 5849 5847 5844 5841 5838 5835 5833 5830 5828 5825 5823 5820 5818 5817 5815 5813 5812 5811 5810 5810 5810 5810 5810 5811 5812 5813 5814 5816 5818 5821 5825 5829 5832 5835 5839 5842 5845 5848
5856 5854 5851 5848 5846 5843 5840 5837 5833 5830 5827 5824 5821 5819 5816 5814 5811 5809 5807 5805 5804 5802 5801 5801 5801 5801 5801 5801 5802 5803 5805 5807 5809 5810 5813 5817 5821 5825 5829 5832 5836 5839 5843
5853 5850 5847 5843 5840 5836 5833 5829 5825 5821 5818 5815 5812 5808 5806 5803 5801 5799 5797 5795 5794 5793 5791 5791 5791 5791 5791 5792 5793 5795 5796 5799 5801 5804 5806 5810 5813 5818 5821 5825 5829 5833 5836
5849 5846 5842 5838 5834 5830 5825 5821 5817 5813 5809 5805 5801 5798 5795 5792 5789 5787 5785 5784 5783 5782 5781 5781 5780 5781 5782 5783 5784 5786 5788 5790 5793 5796 5799 5802 5806 5810 5814 5818 5822 5826 5830
5844 5841 5837 5833 5828 5823 5818 5813 5808 5804 5799 5795 5791 5787 5784 5781 5778 5775 5774 5773 5772 5771 5771 5770 5770 5771 5772 5773 5775 5776 5778 5781 5784 5787 5791 5795 5799 5802 5806 5810 5814 5819 5823
5838 5835 5830 5826 5820 5815 5810 5805 5799 5794 5789 5785 5780 5776 5772 5769 5766 5764 5762 5761 5760 5760 5759 5759 5759 5760 5761 5763 5764 5766 5769 5771 5774 5778 5782 5786 5790 5794 5798 5802 5807 5812 5816